User: anonymous   Login
Location: Elstree
(51.6403°N, 0.2969°W)
Time: 10:43:08
(UTC+00:00)
Language:

USA 308 - Orbit

View from above orbital plane
View from above orbital plane
View from above satellite
View from above satellite

Ground track
Ground track

The orbit data is extracted from the following two-line orbital elements,

1 45876U 20046D   21130.87178002 0.00001800  00000-0  14930-3 0    04
2 45876  53.9774  68.6825 0005378 325.1370  34.8629 14.98349773    03
Epoch (UTC): 10 May 2021 20:55:21
Eccentricity: 0.0005378
inclination: 53.9774°
perigee height: 568 km
apogee height: 576 km
right ascension of ascending node: 68.6825°
argument of perigee: 325.1370°
revolutions per day: 14.98349773
mean anomaly at epoch: 34.8629°
orbit number at epoch: 0

The dashed part of the orbit path shows where the satellite is in the earth's shadow,  

DLR